| time (UTC) | temp F | wind direction | speed knots | gust knots | rain 1hr in | rain 24hr in | rain mn in | humidity % | barometer mb |
| 20260510091706 | 66 | 316 | 2.6 | 8.7 | 0.00 | 0.00 | 0.00 | 71 | 1011.0 |
| 20260510090706 | 65 | 0 | 4.3 | 4.3 | 0.00 | 0.00 | 0.00 | 71 | 1011.0 |
| 20260510090207 | 65 | 8 | 3.5 | 5.2 | 0.00 | 0.00 | 0.00 | 72 | 1011.0 |
| 20260510085707 | 65 | 340 | 2.6 | 5.2 | 0.00 | 0.00 | 0.00 | 72 | 1011.0 |
| 20260510085207 | 64 | 315 | 2.6 | 5.2 | 0.00 | 0.00 | 0.00 | 73 | 1011.0 |
| 20260510084207 | 64 | 357 | 2.6 | 7.0 | 0.00 | 0.00 | 0.00 | 74 | 1011.0 |
| 20260510083706 | 63 | 330 | 3.5 | 5.2 | 0.00 | 0.00 | 0.00 | 75 | 1011.0 |
| 20260510083207 | 62 | 334 | 3.5 | 5.2 | 0.00 | 0.00 | 0.00 | 76 | 1011.0 |
| 20260510082707 | 63 | 349 | 2.6 | 7.0 | 0.00 | 0.00 | 0.00 | 75 | 1011.0 |
| 20260510082206 | 62 | 157 | 1.7 | 5.2 | 0.00 | 0.00 | 0.00 | 77 | 1011.0 |
| 20260510081706 | 62 | 357 | 4.3 | 5.2 | 0.00 | 0.00 | 0.00 | 77 | 1011.0 |
| 20260510080208 | 61 | 52 | 3.5 | 5.2 | 0.00 | 0.00 | 0.00 | 79 | 1011.0 |
| 20260510075705 | 61 | 333 | 3.5 | 3.5 | 0.00 | 0.00 | 0.00 | 79 | 1011.0 |
| 20260510075207 | 61 | 341 | 3.5 | 3.5 | 0.00 | 0.00 | 0.00 | 79 | 1011.0 |
| 20260510074705 | 62 | 62 | 1.7 | 3.5 | 0.00 | 0.00 | 0.00 | 80 | 1011.0 |
| 20260510074206 | 61 | 1 | 1.7 | 3.5 | 0.00 | 0.00 | 0.00 | 81 | 1011.0 |
| 20260510073706 | 61 | 357 | 2.6 | 3.5 | 0.00 | 0.00 | 0.00 | 80 | 1011.0 |
| 20260510073206 | 61 | 331 | 2.6 | 3.5 | 0.00 | 0.00 | 0.00 | 81 | 1011.0 |
| 20260510072705 | 60 | 353 | 0.0 | 3.5 | 0.00 | 0.00 | 0.00 | 81 | 1011.0 |
| 20260510072206 | 60 | 345 | 1.7 | 5.2 | 0.00 | 0.00 | 0.00 | 82 | 1011.0 |
| 20260510071206 | 60 | 357 | 0.0 | 5.2 | 0.00 | 0.00 | 0.00 | 81 | 1011.0 |
| 20260510070705 | 59 | 321 | 2.6 | 5.2 | 0.00 | 0.00 | 0.00 | 81 | 1011.0 |
| 20260510070207 | 60 | 341 | 0.0 | 5.2 | 0.00 | 0.00 | 0.00 | 81 | 1011.0 |
| 20260510065705 | 60 | 336 | 0.0 | 4.3 | 0.00 | 0.00 | 0.00 | 81 | 1011.0 |
| 20260510065207 | 59 | 344 | 2.6 | 4.3 | 0.00 | 0.00 | 0.00 | 81 | 1011.0 |
| 20260510064706 | 59 | 333 | 2.6 | 3.5 | 0.00 | 0.00 | 0.00 | 82 | 1011.0 |
| 20260510064206 | 59 | 4 | 1.7 | 3.5 | 0.00 | 0.00 | 0.00 | 82 | 1011.0 |
| 20260510063705 | 59 | 357 | 0.0 | 3.5 | 0.00 | 0.00 | 0.00 | 84 | 1011.0 |
| 20260510063207 | 58 | 78 | 2.6 | 3.5 | 0.00 | 0.00 | 0.00 | 85 | 1011.0 |
| 20260510062206 | 58 | 74 | 0.0 | 2.6 | 0.00 | 0.00 | 0.00 | 89 | 1011.0 |
| 20260510061205 | 57 | 353 | 0.0 | 2.6 | 0.00 | 0.00 | 0.00 | 92 | 1011.0 |
| 20260510060706 | 57 | 357 | 0.0 | 3.5 | 0.00 | 0.00 | 0.00 | 93 | 1011.0 |
| 20260510060207 | 57 | 357 | 0.0 | 3.5 | 0.00 | 0.00 | 0.00 | 93 | 1011.0 |
| 20260510055707 | 56 | 357 | 0.0 | 3.5 | 0.00 | 0.00 | 0.00 | 94 | 1011.0 |
| 20260510054706 | 56 | 340 | 1.7 | 2.6 | 0.00 | 0.00 | 0.00 | 95 | 1011.0 |
| 20260510054206 | 56 | 335 | 0.0 | 2.6 | 0.00 | 0.00 | 0.00 | 95 | 1011.0 |
| 20260510053706 | 56 | 335 | 0.0 | 2.6 | 0.00 | 0.00 | 0.00 | 95 | 1011.0 |
| 20260510053206 | 56 | 335 | 0.0 | 2.6 | 0.00 | 0.00 | 0.00 | 95 | 1011.0 |
| 20260510050706 | 55 | 337 | 0.0 | 1.7 | 0.00 | 0.00 | 0.00 | 96 | 1011.0 |
| 20260510050206 | 55 | 337 | 0.0 | 1.7 | 0.00 | 0.00 | 0.00 | 96 | 1011.0 |
| 20260510045706 | 55 | 337 | 0.0 | 1.7 | 0.00 | 0.00 | 0.00 | 96 | 1011.0 |
| 20260510045207 | 55 | 333 | 0.0 | 1.7 | 0.00 | 0.00 | 0.00 | 96 | 1011.0 |
| 20260510044705 | 55 | 335 | 0.0 | 1.7 | 0.00 | 0.00 | 0.00 | 96 | 1011.0 |
| 20260510044206 | 55 | 335 | 0.0 | 1.7 | 0.00 | 0.00 | 0.00 | 96 | 1011.0 |
| 20260510043705 | 55 | 335 | 0.0 | 0.0 | 0.00 | 0.00 | 0.00 | 97 | 1011.0 |
| 20260510043207 | 55 | 335 | 0.0 | 0.0 | 0.00 | 0.00 | 0.00 | 97 | 1011.0 |
| 20260510042706 | 55 | 335 | 0.0 | 2.6 | 0.00 | 0.00 | 0.00 | 97 | 1011.0 |
| 20260510042207 | 55 | 335 | 0.0 | 2.6 | 0.00 | 0.00 | 0.00 | 97 | 1011.0 |
| 20260510041206 | 55 | 338 | 0.0 | 3.5 | 0.00 | 0.00 | 0.00 | 97 | 1011.0 |
| 20260510040207 | 55 | 306 | 0.0 | 0.0 | 0.00 | 0.00 | 0.00 | 97 | 1011.0 |
| 20260510035706 | 54 | 326 | 0.0 | 0.0 | 0.00 | 0.00 | 0.00 | 97 | 1011.0 |
| 20260510035206 | 54 | 326 | 0.0 | 0.0 | 0.00 | 0.00 | 0.00 | 96 | 1011.0 |
| 20260510034706 | 54 | 326 | 0.0 | 0.0 | 0.00 | 0.00 | 0.00 | 96 | 1011.0 |
| 20260510034207 | 54 | 326 | 0.0 | 0.0 | 0.00 | 0.00 | 0.00 | 96 | 1011.0 |
| 20260510033706 | 54 | 326 | 0.0 | 0.0 | 0.00 | 0.00 | 0.00 | 96 | 1011.0 |
| 20260510033205 | 54 | 326 | 0.0 | 0.0 | 0.00 | 0.00 | 0.00 | 96 | 1011.0 |
| 20260510032706 | 54 | 326 | 0.0 | 0.0 | 0.00 | 0.00 | 0.00 | 95 | 1011.0 |
| 20260510030707 | 55 | 326 | 0.0 | 0.0 | 0.00 | 0.00 | 0.00 | 96 | 1011.0 |
| 20260510030207 | 55 | 326 | 0.0 | 0.0 | 0.00 | 0.00 | 0.00 | 95 | 1011.0 |
| 20260510025706 | 55 | 326 | 0.0 | 0.0 | 0.00 | 0.00 | 0.00 | 96 | 1011.0 |
| 20260510025206 | 55 | 326 | 0.0 | 0.0 | 0.00 | 0.00 | 0.00 | 96 | 1011.0 |
| 20260510024706 | 55 | 326 | 0.0 | 0.0 | 0.00 | 0.00 | 0.00 | 96 | 1011.0 |
| 20260510024207 | 55 | 326 | 0.0 | 0.0 | 0.00 | 0.00 | 0.00 | 96 | 1011.0 |
| 20260510023706 | 56 | 326 | 0.0 | 0.0 | 0.00 | 0.00 | 0.00 | 96 | 1011.0 |
| 20260510023206 | 56 | 326 | 0.0 | 0.0 | 0.00 | 0.00 | 0.00 | 96 | 1011.0 |
| 20260510022707 | 56 | 318 | 0.0 | 0.0 | 0.00 | 0.00 | 0.00 | 97 | 1011.0 |
| 20260510022206 | 56 | 345 | 0.0 | 0.0 | 0.00 | 0.00 | 0.00 | 97 | 1011.0 |
| 20260510020706 | 56 | 345 | 0.0 | 0.0 | 0.00 | 0.00 | 0.00 | 97 | 1011.0 |
| 20260510020208 | 56 | 345 | 0.0 | 0.0 | 0.00 | 0.00 | 0.00 | 97 | 1011.0 |
| 20260510015705 | 56 | 345 | 0.0 | 0.0 | 0.00 | 0.00 | 0.00 | 97 | 1011.0 |
| 20260510015207 | 56 | 345 | 0.0 | 0.0 | 0.00 | 0.00 | 0.00 | 97 | 1011.0 |
| 20260510014705 | 56 | 345 | 0.0 | 2.6 | 0.00 | 0.00 | 0.00 | 97 | 1011.0 |
| 20260510014207 | 56 | 345 | 0.0 | 2.6 | 0.00 | 0.00 | 0.00 | 97 | 1011.0 |
| 20260510013706 | 56 | 345 | 0.0 | 2.6 | 0.00 | 0.00 | 0.00 | 97 | 1011.0 |
| 20260510013206 | 56 | 313 | 0.0 | 2.6 | 0.00 | 0.00 | 0.00 | 97 | 1011.0 |
| 20260510012706 | 56 | 313 | 0.0 | 2.6 | 0.00 | 0.00 | 0.00 | 97 | 1011.0 |
| 20260510012206 | 56 | 322 | 0.0 | 2.6 | 0.00 | 0.00 | 0.00 | 97 | 1011.0 |
| 20260510011705 | 56 | 322 | 0.0 | 2.6 | 0.00 | 0.00 | 0.00 | 97 | 1011.0 |
| 20260510011208 | 56 | 322 | 0.0 | 2.6 | 0.00 | 0.00 | 0.00 | 97 | 1011.0 |
| 20260510010207 | 57 | 324 | 0.0 | 0.0 | 0.00 | 0.00 | 0.00 | 97 | 1011.0 |
| 20260510005706 | 57 | 324 | 0.0 | 0.0 | 0.00 | 0.00 | 0.00 | 97 | 1011.0 |
| 20260510005206 | 57 | 324 | 0.0 | 0.0 | 0.00 | 0.00 | 0.00 | 97 | 1011.0 |
| 20260510004707 | 57 | 324 | 0.0 | 0.0 | 0.00 | 0.00 | 0.00 | 97 | 1011.0 |
| 20260510003705 | 57 | 324 | 0.0 | 0.0 | 0.00 | 0.00 | 0.00 | 97 | 1012.0 |
| 20260510003206 | 57 | 324 | 0.0 | 0.0 | 0.00 | 0.00 | 0.00 | 97 | 1012.0 |
| 20260510002707 | 57 | 324 | 0.0 | 0.0 | 0.00 | 0.00 | 0.00 | 96 | 1012.0 |
| 20260510002207 | 57 | 324 | 0.0 | 0.0 | 0.00 | 0.00 | 0.00 | 96 | 1012.0 |
| 20260510001705 | 58 | 324 | 0.0 | 0.0 | 0.00 | 0.00 | 0.00 | 96 | 1012.0 |
| 20260510001206 | 58 | 324 | 0.0 | 0.0 | 0.00 | 0.00 | 0.00 | 96 | 1012.0 |
| 20260510000707 | 58 | 324 | 0.0 | 0.0 | 0.00 | 0.00 | 0.00 | 96 | 1012.0 |
| 20260510000207 | 58 | 324 | 0.0 | 0.0 | 0.00 | 0.00 | 0.00 | 96 | 1012.0 |
| 20260509235705 | 58 | 324 | 0.0 | 0.0 | 0.00 | 0.00 | 0.00 | 96 | 1012.0 |
| 20260509235206 | 58 | 324 | 0.0 | 0.0 | 0.00 | 0.00 | 0.00 | 96 | 1012.0 |
| 20260509234706 | 58 | 324 | 0.0 | 0.0 | 0.00 | 0.00 | 0.00 | 96 | 1012.0 |
| 20260509234207 | 58 | 324 | 0.0 | 0.0 | 0.00 | 0.00 | 0.00 | 96 | 1012.0 |
| 20260509233706 | 58 | 324 | 0.0 | 0.0 | 0.00 | 0.00 | 0.00 | 96 | 1012.0 |
| 20260509233205 | 58 | 324 | 0.0 | 1.7 | 0.00 | 0.00 | 0.00 | 96 | 1012.0 |
| 20260509232706 | 58 | 324 | 0.0 | 1.7 | 0.00 | 0.00 | 0.00 | 96 | 1012.0 |
| 20260509232206 | 59 | 324 | 0.0 | 1.7 | 0.00 | 0.00 | 0.00 | 96 | 1012.0 |
| 20260509231206 | 59 | 329 | 0.0 | 0.0 | 0.00 | 0.00 | 0.00 | 96 | 1012.0 |
| 20260509230707 | 59 | 329 | 0.0 | 1.7 | 0.00 | 0.00 | 0.00 | 96 | 1012.0 |
| 20260509230207 | 59 | 329 | 0.0 | 1.7 | 0.00 | 0.00 | 0.00 | 95 | 1012.0 |
| 20260509225706 | 59 | 329 | 0.0 | 1.7 | 0.00 | 0.00 | 0.00 | 95 | 1012.0 |
| 20260509225206 | 59 | 329 | 0.0 | 1.7 | 0.00 | 0.00 | 0.00 | 95 | 1012.0 |
| 20260509224706 | 59 | 326 | 0.0 | 0.0 | 0.00 | 0.00 | 0.00 | 95 | 1012.0 |
| 20260509224205 | 60 | 326 | 0.0 | 0.0 | 0.00 | 0.00 | 0.00 | 95 | 1012.0 |
| 20260509223706 | 60 | 326 | 0.0 | 0.0 | 0.00 | 0.00 | 0.00 | 95 | 1012.0 |
| 20260509223206 | 60 | 326 | 0.0 | 0.0 | 0.00 | 0.00 | 0.00 | 95 | 1012.0 |
| 20260509222206 | 60 | 326 | 0.0 | 0.0 | 0.00 | 0.00 | 0.00 | 95 | 1012.0 |
| 20260509221206 | 60 | 326 | 0.0 | 0.0 | 0.00 | 0.00 | 0.00 | 96 | 1012.0 |
| 20260509220705 | 60 | 326 | 0.0 | 0.0 | 0.00 | 0.00 | 0.00 | 96 | 1012.0 |
| 20260509220207 | 60 | 326 | 0.0 | 0.0 | 0.00 | 0.00 | 0.00 | 96 | 1012.0 |
| 20260509215705 | 60 | 326 | 0.0 | 0.0 | 0.00 | 0.00 | 0.00 | 96 | 1012.0 |
| 20260509215207 | 60 | 326 | 0.0 | 0.0 | 0.00 | 0.00 | 0.00 | 96 | 1012.0 |
| 20260509214706 | 60 | 326 | 0.0 | 2.6 | 0.00 | 0.00 | 0.00 | 96 | 1012.0 |
| 20260509214206 | 60 | 322 | 0.0 | 2.6 | 0.00 | 0.00 | 0.00 | 96 | 1012.0 |
| 20260509213706 | 60 | 328 | 0.0 | 2.6 | 0.00 | 0.00 | 0.00 | 96 | 1012.0 |
| 20260509213206 | 60 | 0 | 0.0 | 2.6 | 0.00 | 0.00 | 0.00 | 96 | 1012.0 |
| 20260509212706 | 60 | 330 | 0.0 | 3.5 | 0.00 | 0.00 | 0.00 | 97 | 1012.0 |
| 20260509212206 | 60 | 330 | 0.0 | 3.5 | 0.00 | 0.00 | 0.00 | 97 | 1012.0 |
| 20260509211706 | 60 | 325 | 0.0 | 3.5 | 0.00 | 0.00 | 0.00 | 97 | 1012.0 |
| 20260509211205 | 60 | 334 | 0.0 | 3.5 | 0.00 | 0.00 | 0.00 | 97 | 1012.0 |
| 20260509210706 | 60 | 334 | 0.0 | 2.6 | 0.00 | 0.00 | 0.00 | 97 | 1012.0 |
| 20260509210207 | 60 | 332 | 0.0 | 2.6 | 0.00 | 0.00 | 0.00 | 97 | 1012.0 |
| 20260509205705 | 60 | 332 | 0.0 | 2.6 | 0.00 | 0.00 | 0.00 | 97 | 1012.0 |
| 20260509205206 | 60 | 337 | 0.0 | 2.6 | 0.00 | 0.00 | 0.00 | 97 | 1012.0 |
| 20260509204706 | 60 | 344 | 1.7 | 0.0 | 0.00 | 0.00 | 0.00 | 97 | 1012.0 |
| 20260509204207 | 60 | 341 | 0.0 | 0.0 | 0.00 | 0.00 | 0.00 | 97 | 1012.0 |
| 20260509203206 | 60 | 344 | 0.0 | 0.0 | 0.00 | 0.00 | 0.00 | 97 | 1012.0 |
| 20260509202706 | 60 | 344 | 0.0 | 0.0 | 0.00 | 0.00 | 0.00 | 97 | 1011.0 |
| 20260509202207 | 60 | 344 | 0.0 | 0.0 | 0.00 | 0.00 | 0.00 | 97 | 1011.0 |
| 20260509201705 | 60 | 344 | 0.0 | 0.0 | 0.00 | 0.00 | 0.00 | 97 | 1011.0 |
| 20260509201205 | 60 | 344 | 0.0 | 2.6 | 0.00 | 0.00 | 0.00 | 98 | 1011.0 |
| 20260509200706 | 60 | 344 | 0.0 | 2.6 | 0.00 | 0.00 | 0.00 | 98 | 1011.0 |
| 20260509200207 | 60 | 344 | 0.0 | 2.6 | 0.00 | 0.00 | 0.00 | 98 | 1011.0 |
| 20260509195707 | 60 | 338 | 0.0 | 0.0 | 0.00 | 0.00 | 0.00 | 98 | 1011.0 |
| 20260509195207 | 60 | 162 | 0.0 | 0.0 | 0.00 | 0.00 | 0.00 | 98 | 1011.0 |
| 20260509194706 | 60 | 162 | 0.0 | 1.7 | 0.00 | 0.00 | 0.00 | 98 | 1011.0 |
| 20260509194207 | 60 | 162 | 0.0 | 1.7 | 0.00 | 0.00 | 0.00 | 98 | 1011.0 |
| 20260509193706 | 60 | 162 | 0.0 | 2.6 | 0.00 | 0.00 | 0.00 | 98 | 1011.0 |
| 20260509193206 | 60 | 162 | 0.0 | 2.6 | 0.00 | 0.00 | 0.00 | 98 | 1011.0 |
| 20260509192706 | 60 | 157 | 0.0 | 3.5 | 0.00 | 0.00 | 0.00 | 98 | 1011.0 |
| 20260509192205 | 60 | 164 | 0.0 | 3.5 | 0.00 | 0.00 | 0.00 | 98 | 1011.0 |
| 20260509191206 | 60 | 110 | 0.0 | 0.0 | 0.00 | 0.00 | 0.00 | 98 | 1010.0 |
| 20260509190706 | 61 | 153 | 0.0 | 1.7 | 0.00 | 0.00 | 0.00 | 98 | 1010.0 |
| 20260509190207 | 60 | 153 | 0.0 | 1.7 | 0.00 | 0.00 | 0.00 | 98 | 1010.0 |
| 20260509185706 | 60 | 153 | 0.0 | 1.7 | 0.00 | 0.00 | 0.00 | 98 | 1010.0 |
| 20260509185206 | 60 | 153 | 0.0 | 1.7 | 0.00 | 0.00 | 0.00 | 98 | 1010.0 |
| 20260509184706 | 60 | 153 | 0.0 | 0.0 | 0.00 | 0.00 | 0.00 | 98 | 1010.0 |
| 20260509184207 | 60 | 140 | 0.0 | 0.0 | 0.00 | 0.00 | 0.00 | 98 | 1010.0 |
| 20260509183705 | 60 | 168 | 0.0 | 0.0 | 0.00 | 0.00 | 0.00 | 98 | 1010.0 |
| 20260509183207 | 60 | 153 | 0.0 | 1.7 | 0.00 | 0.00 | 0.00 | 98 | 1010.0 |
| 20260509182707 | 60 | 145 | 0.0 | 3.5 | 0.00 | 0.00 | 0.00 | 98 | 1010.0 |
| 20260509182206 | 60 | 172 | 0.0 | 3.5 | 0.00 | 0.00 | 0.00 | 98 | 1010.0 |
| 20260509181705 | 60 | 172 | 2.6 | 3.5 | 0.00 | 0.00 | 0.00 | 98 | 1010.0 |
| 20260509181207 | 60 | 148 | 1.7 | 3.5 | 0.00 | 0.00 | 0.00 | 98 | 1009.0 |
| 20260509180706 | 60 | 131 | 2.6 | 1.7 | 0.00 | 0.00 | 0.00 | 98 | 1009.0 |
| 20260509180206 | 60 | 123 | 0.0 | 1.7 | 0.00 | 0.00 | 0.00 | 98 | 1009.0 |
| 20260509175706 | 60 | 137 | 0.0 | 1.7 | 0.00 | 0.00 | 0.00 | 98 | 1009.0 |
| 20260509175207 | 60 | 138 | 0.0 | 0.0 | 0.00 | 0.00 | 0.00 | 98 | 1009.0 |
| 20260509174706 | 60 | 147 | 0.0 | 2.6 | 0.00 | 0.00 | 0.00 | 98 | 1009.0 |
| 20260509174206 | 60 | 187 | 0.0 | 2.6 | 0.00 | 0.00 | 0.00 | 98 | 1009.0 |
| 20260509173705 | 60 | 187 | 0.0 | 2.6 | 0.00 | 0.00 | 0.00 | 98 | 1009.0 |
| 20260509173206 | 60 | 314 | 0.0 | 2.6 | 0.00 | 0.00 | 0.00 | 98 | 1009.0 |
| 20260509172706 | 60 | 195 | 0.0 | 3.5 | 0.00 | 0.00 | 0.00 | 98 | 1009.0 |
| 20260509172206 | 60 | 185 | 0.0 | 3.5 | 0.00 | 0.00 | 0.00 | 98 | 1009.0 |
| 20260509171705 | 60 | 127 | 1.7 | 3.5 | 0.00 | 0.00 | 0.00 | 98 | 1009.0 |
| 20260509171206 | 60 | 151 | 0.0 | 3.5 | 0.00 | 0.00 | 0.00 | 98 | 1010.0 |
| 20260509170706 | 60 | 299 | 0.0 | 2.6 | 0.00 | 0.00 | 0.00 | 98 | 1010.0 |
| 20260509170207 | 60 | 221 | 0.0 | 2.6 | 0.00 | 0.00 | 0.00 | 98 | 1010.0 |
| 20260509165705 | 60 | 312 | 0.0 | 3.5 | 0.00 | 0.00 | 0.00 | 98 | 1010.0 |
| 20260509165206 | 60 | 311 | 0.0 | 3.5 | 0.00 | 0.00 | 0.00 | 98 | 1010.0 |
| 20260509164706 | 60 | 311 | 0.0 | 2.6 | 0.00 | 0.00 | 0.00 | 98 | 1010.0 |
| 20260509163705 | 60 | 316 | 0.0 | 2.6 | 0.00 | 0.00 | 0.00 | 98 | 1011.0 |
| 20260509162207 | 60 | 51 | 0.0 | 0.0 | 0.00 | 0.00 | 0.00 | 98 | 1012.0 |
| 20260509161705 | 60 | 49 | 0.0 | 2.6 | 0.00 | 0.00 | 0.00 | 98 | 1012.0 |
| 20260509161206 | 60 | 80 | 0.0 | 2.6 | 0.00 | 0.00 | 0.00 | 97 | 1012.0 |
| 20260509160706 | 60 | 127 | 0.0 | 2.6 | 0.00 | 0.00 | 0.00 | 97 | 1012.0 |
| 20260509160207 | 60 | 75 | 0.0 | 2.6 | 0.00 | 0.00 | 0.00 | 97 | 1012.0 |
| 20260509155705 | 60 | 84 | 0.0 | 2.6 | 0.00 | 0.00 | 0.00 | 97 | 1012.0 |
| 20260509155206 | 60 | 134 | 0.0 | 3.5 | 0.00 | 0.00 | 0.00 | 97 | 1012.0 |
| 20260509154206 | 61 | 222 | 0.0 | 3.5 | 0.00 | 0.00 | 0.00 | 96 | 1012.0 |
| 20260509153706 | 60 | 344 | 2.6 | 3.5 | 0.00 | 0.00 | 0.00 | 95 | 1012.0 |
| 20260509153205 | 60 | 73 | 0.0 | 2.6 | 0.00 | 0.00 | 0.00 | 95 | 1012.0 |
| 20260509152706 | 60 | 305 | 0.0 | 3.5 | 0.00 | 0.00 | 0.00 | 95 | 1010.0 |
| 20260509152206 | 60 | 137 | 0.0 | 3.5 | 0.00 | 0.00 | 0.00 | 95 | 1010.0 |
| 20260509151705 | 60 | 303 | 0.0 | 3.5 | 0.00 | 0.00 | 0.00 | 95 | 1010.0 |
| 20260509151206 | 60 | 309 | 0.0 | 3.5 | 0.00 | 0.00 | 0.00 | 95 | 1009.0 |
| 20260509150207 | 60 | 332 | 0.0 | 3.5 | 0.00 | 0.00 | 0.00 | 94 | 1009.0 |
| 20260509145705 | 60 | 170 | 0.0 | 5.2 | 0.00 | 0.00 | 0.00 | 94 | 1009.0 |
| 20260509145206 | 60 | 197 | 0.0 | 5.2 | 0.00 | 0.00 | 0.00 | 94 | 1009.0 |
| 20260509144707 | 60 | 194 | 1.7 | 5.2 | 0.00 | 0.00 | 0.00 | 93 | 1009.0 |
| 20260509144207 | 60 | 158 | 1.7 | 5.2 | 0.00 | 0.00 | 0.00 | 92 | 1010.0 |
| 20260509143706 | 60 | 137 | 0.0 | 4.3 | 0.00 | 0.00 | 0.00 | 91 | 1010.0 |
| 20260509143206 | 60 | 136 | 1.7 | 4.3 | 0.00 | 0.00 | 0.00 | 89 | 1010.0 |
| 20260509142707 | 60 | 183 | 2.6 | 5.2 | 0.00 | 0.00 | 0.00 | 87 | 1011.0 |
| 20260509142205 | 61 | 184 | 2.6 | 5.2 | 0.00 | 0.00 | 0.00 | 85 | 1011.0 |
| 20260509141705 | 61 | 175 | 3.5 | 5.2 | 0.00 | 0.00 | 0.00 | 83 | 1011.0 |
| 20260509141206 | 61 | 144 | 2.6 | 5.2 | 0.00 | 0.00 | 0.00 | 81 | 1011.0 |
| 20260509140707 | 62 | 156 | 2.6 | 5.2 | 0.00 | 0.00 | 0.00 | 79 | 1011.0 |
| 20260509140206 | 62 | 164 | 2.6 | 5.2 | 0.00 | 0.00 | 0.00 | 77 | 1011.0 |
| 20260509135707 | 63 | 137 | 3.5 | 4.3 | 0.00 | 0.00 | 0.00 | 73 | 1012.0 |
| 20260509135207 | 64 | 136 | 2.6 | 4.3 | 0.00 | 0.00 | 0.00 | 71 | 1012.0 |
| 20260509134206 | 65 | 124 | 2.6 | 5.2 | 0.00 | 0.00 | 0.00 | 65 | 1011.0 |
| 20260509133706 | 65 | 154 | 1.7 | 5.2 | 0.00 | 0.00 | 0.00 | 63 | 1011.0 |
| 20260509133207 | 65 | 133 | 1.7 | 5.2 | 0.00 | 0.00 | 0.00 | 63 | 1011.0 |
| 20260509132706 | 65 | 138 | 3.5 | 5.2 | 0.00 | 0.00 | 0.00 | 63 | 1011.0 |
| 20260509132207 | 65 | 158 | 2.6 | 5.2 | 0.00 | 0.00 | 0.00 | 62 | 1011.0 |
| 20260509131206 | 65 | 131 | 1.7 | 4.3 | 0.00 | 0.00 | 0.00 | 62 | 1011.0 |
| 20260509130706 | 65 | 159 | 2.6 | 4.3 | 0.00 | 0.00 | 0.00 | 63 | 1011.0 |
| 20260509130207 | 65 | 168 | 0.0 | 4.3 | 0.00 | 0.00 | 0.00 | 63 | 1011.0 |
| 20260509125706 | 65 | 155 | 0.0 | 3.5 | 0.00 | 0.00 | 0.00 | 63 | 1010.0 |
| 20260509125206 | 65 | 183 | 2.6 | 4.3 | 0.00 | 0.00 | 0.00 | 63 | 1010.0 |
| 20260509124707 | 65 | 166 | 2.6 | 4.3 | 0.00 | 0.00 | 0.00 | 62 | 1010.0 |
| 20260509124205 | 65 | 238 | 0.0 | 4.3 | 0.00 | 0.00 | 0.00 | 62 | 1011.0 |
| 20260509123706 | 65 | 138 | 1.7 | 5.2 | 0.00 | 0.00 | 0.00 | 62 | 1011.0 |
| 20260509123208 | 65 | 149 | 0.0 | 7.0 | 0.00 | 0.00 | 0.00 | 63 | 1011.0 |
| 20260509122706 | 65 | 211 | 3.5 | 7.0 | 0.00 | 0.00 | 0.00 | 62 | 1011.0 |
| 20260509122209 | 65 | 104 | 2.6 | 7.0 | 0.00 | 0.00 | 0.00 | 62 | 1011.0 |
| 20260509121206 | 65 | 177 | 1.7 | 5.2 | 0.00 | 0.00 | 0.00 | 62 | 1012.0 |
| 20260509120706 | 65 | 166 | 1.7 | 6.1 | 0.00 | 0.00 | 0.00 | 62 | 1012.0 |
| 20260509120206 | 65 | 129 | 0.0 | 6.1 | 0.00 | 0.00 | 0.00 | 63 | 1012.0 |
| 20260509115705 | 65 | 167 | 2.6 | 7.0 | 0.00 | 0.00 | 0.00 | 63 | 1012.0 |
| 20260509115206 | 65 | 163 | 2.6 | 7.0 | 0.00 | 0.00 | 0.00 | 62 | 1012.0 |
| 20260509114206 | 65 | 163 | 2.6 | 7.0 | 0.00 | 0.00 | 0.00 | 64 | 1012.0 |
| 20260509113707 | 65 | 150 | 3.5 | 7.0 | 0.00 | 0.00 | 0.00 | 64 | 1012.0 |
| 20260509113207 | 66 | 194 | 5.2 | 7.0 | 0.00 | 0.00 | 0.00 | 64 | 1012.0 |
| 20260509112706 | 66 | 181 | 3.5 | 7.0 | 0.00 | 0.00 | 0.00 | 64 | 1013.0 |
| 20260509112207 | 66 | 193 | 2.6 | 8.7 | 0.00 | 0.00 | 0.00 | 64 | 1013.0 |
| 20260509111707 | 66 | 173 | 5.2 | 8.7 | 0.00 | 0.00 | 0.00 | 65 | 1013.0 |
| 20260509111207 | 65 | 143 | 5.2 | 8.7 | 0.00 | 0.00 | 0.00 | 66 | 1012.0 |
| 20260509110706 | 66 | 166 | 6.1 | 7.8 | 0.00 | 0.00 | 0.00 | 67 | 1012.0 |
| 20260509110209 | 66 | 163 | 3.5 | 7.8 | 0.00 | 0.00 | 0.00 | 69 | 1012.0 |
| 20260509105705 | 65 | 158 | 2.6 | 5.2 | 0.00 | 0.00 | 0.00 | 69 | 1012.0 |
| 20260509105207 | 65 | 150 | 2.6 | 5.2 | 0.00 | 0.00 | 0.00 | 70 | 1012.0 |
| 20260509104705 | 65 | 209 | 2.6 | 5.2 | 0.00 | 0.00 | 0.00 | 69 | 1012.0 |
| 20260509104206 | 65 | 157 | 2.6 | 5.2 | 0.00 | 0.00 | 0.00 | 69 | 1013.0 |
| 20260509103705 | 65 | 176 | 2.6 | 5.2 | 0.00 | 0.00 | 0.00 | 69 | 1013.0 |
| 20260509103206 | 65 | 156 | 2.6 | 5.2 | 0.00 | 0.00 | 0.00 | 69 | 1013.0 |
| 20260509102705 | 65 | 165 | 2.6 | 5.2 | 0.00 | 0.00 | 0.00 | 69 | 1012.0 |
| 20260509102208 | 65 | 192 | 2.6 | 5.2 | 0.00 | 0.00 | 0.00 | 68 | 1012.0 |
| 20260509101706 | 66 | 179 | 2.6 | 4.3 | 0.00 | 0.00 | 0.00 | 69 | 1012.0 |
| 20260509101206 | 66 | 184 | 1.7 | 4.3 | 0.00 | 0.00 | 0.00 | 69 | 1012.0 |
| 20260509100706 | 66 | 171 | 3.5 | 4.3 | 0.00 | 0.00 | 0.00 | 70 | 1012.0 |
| 20260509100208 | 65 | 163 | 2.6 | 4.3 | 0.00 | 0.00 | 0.00 | 70 | 1012.0 |
| 20260509095707 | 65 | 188 | 3.5 | 3.5 | 0.00 | 0.00 | 0.00 | 69 | 1012.0 |
| 20260509095207 | 65 | 138 | 0.0 | 3.5 | 0.00 | 0.00 | 0.00 | 69 | 1012.0 |
| 20260509094706 | 65 | 198 | 2.6 | 5.2 | 0.00 | 0.00 | 0.00 | 70 | 1012.0 |
| 20260509094205 | 65 | 148 | 0.0 | 5.2 | 0.00 | 0.00 | 0.00 | 70 | 1012.0 |
| 20260509093705 | 65 | 161 | 0.0 | 7.0 | 0.00 | 0.00 | 0.00 | 70 | 1012.0 |
| 20260509092706 | 66 | 244 | 0.0 | 5.2 | 0.00 | 0.00 | 0.00 | 70 | 1012.0 |